Probability
10 23 55 58 58 71 71 74 71 71 74 77 71 68 68 71 74 74 71 71 68 68 74 74 74 61 58 61 58 58 58 55 58 65 55 58 55 52 52 55 42 26 52
16 26 55 61 65 71 77 71 71 71 74 74 71 65 68 68 71 77 71 65 71 71 71 65 65 55 52 52 48 52 55 58 58 71 55 55 52 61 55 39 42 26 48
26 32 55 65 74 77 77 77 71 74 81 71 68 65 68 74 68 71 71 68 68 71 68 55 61 55 48 52 48 45 45 65 61 52 58 39 39 55 52 42 45 45 39
26 42 48 68 71 81 74 77 77 71 68 74 71 74 74 71 71 68 68 65 58 55 52 52 55 52 52 52 45 48 42 48 52 58 32 26 26 42 55 42 42 35 35
32 45 61 68 81 77 77 81 71 68 65 68 61 65 65 71 74 74 65 65 58 52 48 52 45 48 48 48 48 52 48 48 48 42 16 23 42 55 52 52 45 39 35
35 35 61 77 81 81 81 74 68 68 65 61 58 58 61 68 71 71 65 61 61 55 52 48 45 39 45 42 42 45 48 45 39 23 23 19 35 55 55 52 39 39 35
35 32 55 81 74 74 74 74 71 68 65 65 61 58 61 71 65 65 65 61 58 52 48 42 45 42 42 42 42 42 42 45 19 19 23 23 39 58 58 52 45 45 42
35 42 58 74 68 68 68 71 68 68 68 65 61 61 58 58 61 58 58 58 58 55 48 48 45 45 45 45 45 45 35 32 10 13 19 23 48 52 55 52 48 48 45
32 35 48 55 65 68 65 65 61 58 58 58 61 58 61 58 52 52 55 55 58 52 52 52 48 52 48 48 42 39 29 29 23 19 3 13 45 48 42 48 48 45 42
32 39 45 48 55 52 58 68 58 58 58 58 58 55 55 55 58 48 45 52 52 48 48 48 48 48 42 39 32 29 29 19 10 13 13 16 45 45 35 45 52 48 45
35 42 45 48 52 55 48 52 58 58 58 58 58 52 52 39 32 42 42 48 42 45 58 42 42 42 39 39 35 32 23 13 10 23 32 29 35 42 45 48 45 42 45
42 42 39 45 52 48 48 65 68 61 61 61 55 45 42 45 42 32 45 48 45 42 52 42 39 42 29 23 32 32 29 16 13 13 32 42 39 42 42 42 45 48 48
45 48 45 48 58 52 61 61 65 58 65 61 55 45 45 42 35 42 35 39 39 42 35 32 32 29 23 26 32 23 16 13 19 13 26 29 35 39 48 52 42 45 48
42 45 45 52 52 52 55 58 61 55 58 55 52 45 42 39 35 39 45 39 39 35 35 39 35 26 29 26 29 16 13 23 23 23 29 29 26 35 32 39 39 39 39
45 52 58 58 65 68 68 65 55 55 48 55 61 48 45 45 39 42 52 52 39 35 45 48 35 32 32 23 19 16 13 16 10 16 29 29 32 32 32 26 32 26 32
52 61 58 58 61 71 71 71 65 55 58 45 42 42 48 35 42 35 45 48 45 45 39 42 29 39 29 29 23 23 26 23 23 23 19 29 39 39 35 32 35 39 35
61 65 65 61 61 68 71 68 55 52 52 45 48 52 48 42 55 48 39 48 45 42 45 39 32 35 29 29 26 26 23 29 29 32 19 16 23 35 32 29 26 35 29
61 68 68 55 65 61 65 65 55 55 55 52 48 45 48 52 45 52 35 32 48 45 32 32 35 32 35 32 29 32 29 48 32 48 32 39 29 32 29 29 26 19 16
58 61 61 55 58 65 65 65 61 61 61 61 55 55 48 48 48 48 52 55 55 48 35 35 32 35 39 35 32 35 35 39 35 26 39 39 42 39 32 39 32 29 19
61 61 55 58 58 55 58 58 61 61 61 61 61 65 55 55 48 39 42 48 39 45 42 42 45 52 48 48 19 23 32 29 29 26 29 29 35 35 32 26 32 29 29
55 58 61 58 58 58 52 52 65 61 58 55 55 52 48 48 52 52 35 48 48 45 42 29 39 35 35 45 35 29 32 29 32 29 29 32 29 35 35 29 29 26 23
58 58 65 58 55 58 55 52 55 61 52 52 52 55 48 48 42 35 48 35 42 48 48 42 45 35 29 32 32 29 29 32 35 19 29 29 29 29 29 23 29 29 26
61 61 55 52 55 58 58 48 52 52 52 48 52 55 52 42 42 42 42 45 42 39 42 48 48 39 29 29 29 26 29 26 23 19 29 26 26 32 19 19 19 23 19
52 52 55 55 61 58 52 45 52 52 39 48 48 48 55 48 42 45 45 48 48 39 48 45 32 35 42 39 39 39 29 26 26 29 23 29 29 26 16 16 13 13 16
39 39 45 42 42 48 45 52 48 48 48 39 45 52 52 48 48 45 45 48 48 45 45 39 45 42 42 42 39 42 26 26 23 29 23 26 19 16 16 16 16 13 16
39 32 35 39 42 42 39 42 48 48 48 42 42 42 45 48 52 48 45 45 48 52 52 45 45 48 48 48 42 35 32 23 23 23 23 23 26 16 29 26 19 16 13
Height
5892 5891 5889 5888 5887 5886 5885 5884 5883 5882 5881 5880 5879 5879 5878 5878 5877 5877 5876 5876 5875 5875 5875 5874 5875 5874 5874 5875 5875 5875 5876 5876 5876 5875 5876 5877 5879 5881 5882 5882 5883 5884 5884
5893 5891 5889 5888 5887 5886 5885 5884 5883 5882 5881 5880 5879 5879 5878 5877 5877 5876 5875 5875 5875 5874 5874 5874 5874 5874 5874 5874 5875 5875 5875 5875 5875 5874 5875 5877 5879 5880 5882 5882 5883 5884 5884
5892 5890 5889 5888 5887 5886 5885 5883 5882 5881 5880 5880 5879 5878 5877 5877 5876 5875 5875 5874 5874 5874 5874 5874 5873 5873 5874 5874 5874 5874 5875 5875 5875 5875 5876 5877 5878 5880 5881 5882 5882 5883 5884
5892 5890 5889 5888 5886 5885 5884 5883 5882 5881 5880 5879 5878 5878 5877 5876 5875 5875 5874 5873 5873 5873 5873 5873 5872 5872 5873 5873 5873 5874 5874 5875 5875 5876 5877 5877 5878 5880 5881 5881 5882 5883 5884
5892 5890 5889 5888 5886 5885 5884 5883 5882 5880 5880 5879 5878 5877 5876 5875 5875 5874 5873 5872 5872 5872 5872 5872 5872 5872 5872 5872 5873 5873 5873 5874 5875 5875 5876 5877 5879 5879 5880 5881 5882 5883 5883
5892 5890 5889 5887 5886 5885 5883 5882 5881 5880 5879 5878 5877 5876 5875 5874 5873 5873 5872 5871 5871 5870 5870 5870 5870 5871 5871 5872 5872 5872 5873 5873 5874 5874 5876 5877 5878 5879 5880 5881 5881 5882 5883
5891 5890 5888 5887 5885 5884 5883 5881 5880 5879 5878 5877 5876 5876 5875 5873 5872 5871 5870 5870 5869 5869 5869 5869 5869 5870 5870 5871 5871 5871 5872 5873 5873 5874 5875 5876 5878 5879 5880 5880 5881 5881 5882
5891 5889 5888 5886 5885 5884 5882 5881 5880 5878 5878 5877 5876 5875 5874 5872 5871 5870 5869 5868 5866 5866 5866 5867 5868 5869 5870 5870 5870 5870 5871 5871 5872 5873 5874 5876 5877 5878 5879 5879 5880 5881 5881
5890 5889 5887 5886 5884 5883 5882 5880 5879 5878 5877 5876 5875 5874 5873 5871 5870 5868 5867 5865 5862 5862 5863 5865 5867 5867 5868 5869 5869 5869 5870 5871 5871 5872 5873 5875 5876 5877 5878 5879 5879 5880 5881
5890 5888 5887 5885 5884 5882 5881 5880 5878 5877 5876 5875 5874 5873 5872 5870 5869 5867 5865 5862 5860 5859 5861 5863 5865 5866 5867 5868 5868 5869 5869 5870 5870 5871 5872 5874 5875 5877 5877 5878 5878 5879 5879
5889 5887 5886 5885 5883 5882 5880 5879 5878 5876 5876 5875 5873 5872 5871 5870 5868 5866 5864 5862 5860 5860 5861 5863 5865 5866 5867 5867 5868 5868 5869 5869 5870 5871 5872 5873 5874 5875 5876 5877 5878 5878 5879
5888 5887 5885 5884 5883 5881 5879 5878 5877 5876 5875 5874 5873 5872 5871 5869 5868 5866 5864 5863 5862 5862 5862 5863 5864 5865 5866 5867 5868 5868 5868 5868 5869 5870 5871 5872 5873 5874 5875 5876 5877 5877 5878
5887 5885 5884 5883 5882 5880 5879 5878 5876 5875 5874 5873 5872 5871 5870 5869 5867 5866 5865 5864 5864 5863 5863 5863 5864 5865 5866 5867 5867 5868 5868 5868 5868 5869 5870 5871 5872 5874 5874 5875 5875 5876 5876
5885 5884 5883 5882 5881 5879 5878 5877 5876 5874 5873 5872 5871 5870 5869 5868 5867 5866 5865 5864 5864 5863 5863 5864 5864 5865 5865 5866 5867 5867 5868 5868 5868 5869 5869 5871 5872 5873 5873 5874 5874 5875 5875
5883 5882 5881 5880 5879 5878 5876 5875 5874 5872 5872 5871 5870 5869 5868 5867 5867 5866 5865 5864 5864 5863 5863 5863 5864 5864 5865 5866 5866 5867 5867 5867 5868 5868 5869 5870 5871 5872 5872 5873 5873 5873 5874
5881 5880 5879 5878 5877 5876 5875 5873 5872 5871 5870 5869 5868 5868 5867 5866 5866 5865 5864 5864 5863 5863 5863 5863 5863 5864 5864 5865 5865 5866 5866 5867 5867 5867 5868 5869 5870 5870 5871 5871 5871 5872 5872
5879 5877 5876 5875 5874 5873 5872 5871 5870 5869 5868 5867 5867 5866 5866 5865 5864 5864 5863 5863 5863 5862 5862 5862 5862 5863 5863 5864 5864 5865 5865 5866 5866 5867 5867 5868 5868 5869 5870 5870 5870 5870 5871
5876 5875 5874 5873 5872 5871 5870 5869 5868 5867 5866 5865 5864 5864 5864 5863 5863 5862 5862 5862 5862 5861 5861 5861 5862 5862 5862 5862 5863 5863 5864 5864 5865 5865 5866 5866 5867 5867 5868 5868 5868 5869 5869
5874 5872 5871 5869 5869 5868 5868 5867 5866 5865 5864 5863 5863 5862 5862 5861 5861 5861 5860 5860 5860 5860 5860 5860 5860 5860 5861 5861 5861 5862 5862 5863 5863 5864 5864 5865 5865 5866 5866 5866 5867 5867 5867
5871 5869 5867 5866 5865 5865 5864 5864 5864 5863 5862 5861 5861 5860 5860 5859 5859 5859 5858 5858 5858 5858 5859 5859 5859 5859 5859 5859 5859 5860 5861 5861 5862 5862 5863 5863 5863 5864 5864 5865 5865 5865 5865
5868 5866 5864 5863 5862 5862 5861 5861 5860 5860 5859 5859 5858 5858 5857 5857 5857 5857 5857 5856 5856 5856 5856 5857 5857 5857 5857 5857 5858 5858 5859 5859 5860 5860 5861 5861 5861 5862 5862 5862 5862 5863 5863
5864 5863 5862 5860 5860 5859 5858 5857 5857 5856 5856 5856 5855 5855 5855 5855 5855 5854 5854 5854 5854 5854 5854 5854 5855 5855 5855 5856 5856 5856 5857 5858 5857 5858 5858 5859 5859 5860 5860 5860 5860 5860 5860
5861 5860 5859 5858 5857 5856 5855 5854 5854 5854 5853 5853 5853 5852 5852 5852 5852 5852 5852 5852 5852 5852 5852 5852 5852 5853 5853 5853 5854 5854 5855 5855 5855 5856 5856 5857 5857 5857 5857 5857 5857 5858 5857
5857 5856 5855 5854 5854 5853 5852 5852 5851 5850 5850 5849 5849 5849 5848 5848 5849 5849 5849 5849 5849 5849 5849 5849 5849 5850 5850 5851 5851 5851 5852 5852 5853 5853 5854 5854 5854 5854 5854 5854 5854 5855 5855
5852 5851 5851 5850 5849 5849 5848 5848 5847 5847 5846 5846 5845 5845 5845 5845 5845 5845 5845 5845 5845 5845 5845 5846 5846 5846 5847 5848 5848 5849 5849 5849 5850 5850 5851 5851 5851 5851 5851 5851 5851 5852 5851
5848 5847 5846 5845 5844 5843 5843 5843 5843 5843 5842 5842 5842 5841 5841 5841 5841 5841 5842 5842 5842 5842 5842 5842 5842 5843 5844 5844 5845 5845 5846 5846 5846 5847 5847 5847 5847 5847 5848 5848 5848 5848 5848
Wind_Speed
8 8 8 7 7 6 5 4 4 4 4 3 3 3 3 2 2 2 2 1 2 2 2 2 2 2 3 4 5 5 6 5 5 5 6 7 6 6 6 5 6 6 6
9 8 8 7 7 7 5 4 4 3 3 3 3 3 2 2 1 1 1 1 2 2 2 2 2 2 2 4 5 6 6 5 5 5 6 6 6 6 6 6 6 6 6
9 8 8 7 8 7 5 4 4 4 3 3 3 3 2 1 1 1 0 1 2 2 1 1 2 2 3 4 6 6 6 5 5 5 6 6 6 6 6 6 6 6 7
8 8 8 8 7 7 6 5 4 4 3 3 3 2 2 1 1 1 0 1 1 1 2 2 2 3 3 4 5 6 7 7 7 7 6 5 6 5 5 6 5 6 6
8 8 8 7 7 6 5 4 4 4 3 3 2 2 2 1 1 1 1 1 1 1 2 2 2 3 4 4 5 6 7 8 8 8 7 6 7 6 5 5 6 6 6
8 8 8 7 6 6 5 4 4 3 3 3 2 2 2 2 1 2 2 1 1 2 2 2 2 3 4 5 5 6 8 8 8 8 8 7 7 7 6 6 6 6 6
8 8 8 7 6 6 5 4 4 3 3 3 2 2 2 2 2 2 2 1 2 2 3 3 3 4 4 4 5 6 7 8 8 8 8 8 8 8 7 6 6 6 7
8 8 8 8 7 6 5 4 4 3 3 3 3 3 3 3 3 3 2 3 4 4 4 4 4 4 4 4 5 6 6 7 8 9 9 9 9 8 8 7 7 7 7
7 8 8 8 7 6 5 4 4 3 3 3 3 3 3 4 4 2 3 3 4 4 4 4 4 4 4 5 5 6 5 6 7 9 9 9 9 8 8 7 8 8 8
7 7 7 7 7 6 6 4 3 3 3 3 3 3 3 4 3 3 4 3 2 3 4 5 4 4 5 5 5 6 6 7 7 9 9 9 9 9 8 8 8 8 8
7 6 6 6 6 6 6 4 3 2 2 3 3 3 3 4 4 4 3 2 0 2 3 4 5 4 4 4 5 6 7 7 7 9 9 9 9 9 9 9 9 8 8
7 6 6 6 6 6 5 4 4 3 2 3 3 4 4 4 3 3 2 1 0 1 3 4 4 5 5 4 5 6 7 8 8 9 8 8 8 8 9 9 9 8 9
8 7 7 6 6 5 5 5 4 4 4 4 4 4 4 4 3 3 2 1 0 1 2 4 5 5 5 5 6 6 6 6 7 8 8 8 8 8 9 9 8 8 8
9 8 7 7 7 6 6 5 5 5 5 4 4 4 3 4 3 3 2 1 1 2 3 3 4 4 4 5 6 6 6 6 7 7 6 7 7 7 7 7 8 8 7
10 9 8 8 8 7 6 6 6 6 5 5 5 5 3 3 3 3 3 2 2 3 3 4 4 4 5 5 5 6 6 6 6 7 7 7 7 7 7 7 8 8 8
11 10 9 9 9 8 8 7 7 6 6 6 6 6 4 4 4 4 4 3 3 4 4 4 5 5 6 5 6 6 6 7 6 7 7 8 8 8 8 8 8 8 8
12 12 11 10 10 10 9 8 8 8 8 7 6 6 5 5 4 4 4 4 4 5 5 5 5 6 6 6 7 8 7 7 8 7 7 8 9 8 8 8 8 8 9
12 12 12 12 11 11 10 10 8 9 8 7 6 6 6 6 5 5 4 5 5 5 5 5 5 6 7 7 8 8 8 8 8 7 8 8 9 9 9 9 8 9 9
13 13 13 13 13 12 12 11 10 10 9 8 7 7 7 7 6 6 5 6 6 6 6 6 6 6 7 8 9 9 8 9 9 8 8 9 9 10 10 9 9 9 10
14 14 14 13 13 13 13 12 11 10 9 8 8 8 8 8 7 7 7 7 7 7 7 7 7 7 7 8 8 9 9 10 9 9 9 9 10 10 11 10 10 10 11
15 14 13 13 12 12 12 12 12 11 10 10 10 11 10 9 8 8 8 8 8 8 9 9 9 8 8 8 9 9 9 10 10 9 9 9 9 10 10 11 11 11 11
15 13 13 13 12 12 12 12 11 11 12 12 11 11 11 10 10 9 9 9 9 9 10 10 11 10 10 9 10 10 10 10 10 10 11 11 11 10 11 12 12 12 12
16 15 14 14 13 13 12 12 12 12 12 12 12 12 12 12 11 11 10 10 10 11 11 11 12 12 11 11 11 11 11 11 11 11 11 12 12 11 11 11 11 12 13
18 17 15 14 14 15 14 13 13 13 13 13 13 13 13 13 13 13 12 12 12 12 12 12 11 13 13 13 12 12 12 12 12 13 13 13 13 13 12 12 12 12 13
19 18 17 16 17 16 16 15 15 15 15 14 14 14 14 13 13 13 13 13 13 13 13 13 12 12 13 13 13 13 13 13 13 13 14 14 14 14 13 13 13 13 13
19 19 19 19 19 17 17 17 16 17 17 16 16 15 14 14 14 14 14 15 15 14 14 14 13 12 13 13 13 13 13 13 14 14 15 15 16 15 15 15 14 14 14
Wind_Direction
21 22 24 21 18 17 20 30 41 48 56 66 65 63 72 74 73 78 77 118 146 131 132 143 168 192 197 189 192 197 193 197 209 219 205 203 201 200 205 210 203 203 209
21 19 21 19 15 11 10 16 24 33 41 45 49 56 66 72 69 61 77 111 141 141 161 174 175 178 197 193 191 193 192 197 201 198 195 199 195 196 200 200 199 201 204
20 18 18 18 15 11 9 6 11 23 33 35 35 38 37 47 65 36 37 108 125 129 150 171 177 187 195 194 190 192 191 195 191 188 191 198 198 195 197 198 202 206 205
12 12 12 12 11 8 3 1 5 15 24 30 27 26 27 32 37 51 59 144 139 149 172 183 195 204 210 199 194 196 195 198 201 204 202 200 198 196 203 208 204 207 207
4 4 7 7 7 6 5 357 355 8 17 19 13 11 10 6 356 3 337 255 176 187 200 193 189 207 209 202 196 198 199 196 205 208 205 199 196 202 212 214 212 216 217
2 360 2 3 2 3 1 359 358 6 10 13 9 2 353 341 326 327 313 239 219 221 224 224 213 201 199 195 197 203 208 209 206 206 203 201 200 205 211 213 212 214 218
360 1 2 5 1 358 355 354 352 353 359 6 4 348 335 329 322 319 293 247 247 248 236 235 227 211 207 200 204 207 209 212 211 206 203 205 205 206 210 207 209 214 217
355 358 356 358 355 351 345 346 349 351 350 354 354 347 330 322 321 310 292 278 265 251 243 234 234 220 217 204 209 217 217 210 207 203 203 205 208 211 215 211 207 212 218
352 352 354 354 352 348 344 348 352 359 359 358 354 354 339 326 326 313 302 298 275 246 229 224 225 219 217 210 213 213 210 203 197 196 196 198 203 209 217 217 215 219 219
350 347 349 352 352 348 342 344 353 357 359 3 359 355 338 327 334 328 319 310 270 226 207 210 211 211 215 218 212 207 205 203 200 198 198 196 201 209 215 224 222 221 221
344 343 341 345 347 343 344 341 344 353 357 360 352 353 348 339 342 342 346 345 303 188 187 198 206 205 210 211 208 205 204 203 201 207 205 201 207 214 217 224 224 226 227
336 336 334 335 339 338 339 339 338 334 329 335 340 339 340 341 342 347 359 5 22 151 176 189 204 212 209 210 212 214 210 206 204 205 203 209 214 216 219 222 223 225 225
326 324 324 327 326 326 328 329 325 320 309 307 314 325 331 330 328 332 344 330 188 173 187 198 205 210 211 210 214 220 215 211 212 209 207 209 218 221 225 228 229 228 228
316 315 315 315 310 310 313 314 314 310 304 305 304 309 320 323 316 305 296 286 236 209 205 211 211 213 215 213 214 217 222 217 219 219 214 216 222 228 229 231 231 233 235
307 305 304 303 300 300 299 304 302 297 297 299 305 297 303 310 306 291 288 263 242 235 220 216 212 215 222 224 219 218 221 223 227 224 219 223 227 233 234 233 236 238 240
297 296 294 290 289 291 290 293 296 291 286 287 297 299 298 297 293 282 281 271 249 241 234 226 227 222 226 229 226 222 226 228 233 227 226 224 226 232 234 235 238 237 239
292 292 290 287 284 282 281 282 284 285 290 284 286 289 294 292 286 283 266 263 255 248 243 239 238 230 232 233 233 231 231 231 235 233 231 230 230 233 236 238 242 244 239
288 286 287 282 280 279 278 277 278 279 283 282 278 281 286 290 283 272 257 259 256 254 251 246 242 235 233 232 231 232 232 231 228 234 235 236 235 236 237 241 244 246 246
290 288 284 279 277 278 279 277 275 274 280 278 275 276 277 283 278 268 259 249 248 249 252 249 249 245 239 235 231 231 237 236 234 233 236 236 238 239 238 240 244 245 247
289 291 285 278 274 275 274 272 274 273 277 274 271 271 272 273 270 269 262 248 247 251 252 251 249 250 248 242 237 236 240 238 237 235 237 237 238 241 241 242 245 248 251
285 286 287 282 277 275 274 270 270 273 272 275 273 269 268 268 265 266 261 258 254 253 252 250 248 248 248 245 243 242 239 240 239 236 238 240 243 245 245 245 250 253 258
283 282 282 284 280 279 279 271 269 272 273 273 271 268 268 264 262 262 262 265 265 259 253 252 248 249 248 247 247 245 243 244 240 239 240 242 244 247 249 249 252 256 257
279 281 285 283 278 277 278 276 270 271 273 271 268 268 266 263 260 263 262 263 269 267 261 255 249 248 248 247 247 246 245 249 243 243 243 245 245 247 249 251 254 257 256
275 278 280 283 278 273 274 272 269 269 269 268 266 266 262 260 259 260 260 261 265 267 264 261 257 248 246 246 247 248 247 250 244 244 245 248 249 250 250 253 254 257 256
275 275 277 280 281 275 269 268 268 268 268 267 265 265 263 258 258 259 261 262 263 263 261 260 258 253 249 247 247 249 250 247 245 247 251 254 256 256 254 254 256 259 259
276 277 277 279 278 274 270 266 267 267 267 265 265 264 261 259 259 259 259 260 262 262 259 259 256 256 253 252 251 251 253 249 252 253 253 257 259 259 258 256 256 258 256